{"data":{"norad_id":61584,"intl_designator":"2024-187L","name":"STARLINK-11370 [DTC]","alt_names":[],"object_type":"PAYLOAD","status":"ACTIVE","operator":null,"country":"US","launch_date":"2024-10-18","launch_site_code":"AFETR","launch_vehicle":null,"mission":null,"orbit_class":"UNKNOWN","rcs_meters":null,"size_class":null,"mass_kg":null,"dimensions":null,"purposes":["comms"],"wikipedia_slug":null,"has_3d_model":false,"image_url":null,"decayed_at":null,"tle_current":{"epoch":"2026-09-21T21:25:39.880416Z","epoch_age_seconds":71794,"freshness":"FRESH","line1":"1 61584U 24187L   26264.89282269  .00001026  00000+0  13319-4 0  9991","line2":"2 61584  53.1606  49.2278 0001078 104.4575 255.6563 15.69716590111566","mean_motion":15.6971659,"eccentricity":0.0001078,"inclination_deg":53.1606,"raan_deg":49.2278,"arg_perigee_deg":104.4575,"mean_anomaly_deg":255.6563,"bstar":1.3319e-5,"rev_number":11156,"period_min":91.736305086767,"perigee_km":358.98155274887,"apogee_km":360.43423210768,"semimajor_km":6737.8448924283,"source":"CELESTRAK","updated_at":"2026-09-22T09:00:49.392151Z"}}}